This is the latest recevied weather packets stored in our database for station/object KE5QKR. If no packets are shown the sender has not sent any weather packets the latest 10 day(s).
| Time | Temp. | Humidity | Pressure | Rain* | Wind** | Luminosity | Snow |
|---|---|---|---|---|---|---|---|
| 1777761778 | 21.11° C | 40% | 1014 hPa | 0 mm | - | 174 W/m² | - |
| 1777761476 | 21.67° C | 41% | 1013.8 hPa | 0 mm | - | 189 W/m² | - |
| 1777761174 | 21.67° C | 41% | 1013.8 hPa | 0 mm | - | 100 W/m² | - |
| 1777760871 | 21.67° C | 44% | 1013.7 hPa | 0 mm | - | 219 W/m² | - |
| 1777760568 | 21.67° C | 41% | 1013.8 hPa | 0 mm | - | 54 W/m² | - |
| 1777760264 | 21.67° C | 41% | 1013.7 hPa | 0 mm | - | 156 W/m² | - |
| 1777759960 | 21.67° C | 40% | 1013.8 hPa | 0 mm | - | 235 W/m² | - |
| 1777759657 | 21.67° C | 41% | 1013.6 hPa | 0 mm | - | 133 W/m² | - |
| 1777759353 | 21.67° C | 41% | 1013.7 hPa | 0 mm | - | 99 W/m² | - |
| 1777759050 | 21.67° C | 42% | 1013.9 hPa | 0 mm | - | 65 W/m² | - |
| 1777758747 | 21.67° C | 42% | 1013.5 hPa | 0 mm | - | 88 W/m² | - |
| 1777758444 | 21.67° C | 40% | 1013.6 hPa | 0 mm | - | 120 W/m² | - |
| 1777758141 | 21.67° C | 40% | 1013.4 hPa | 1.27 mm | - | 167 W/m² | - |
| 1777757838 | 21.67° C | 40% | 1013.8 hPa | 1.27 mm | - | 424 W/m² | - |
| 1777757536 | 21.67° C | 40% | 1013.4 hPa | 0 mm | - | 441 W/m² | - |
| 1777757234 | 21.67° C | 40% | 1013.3 hPa | 0 mm | - | 458 W/m² | - |
| 1777756932 | 21.67° C | 39% | 1013.2 hPa | 0 mm | - | 473 W/m² | - |
| 1777756628 | 22.22° C | 41% | 1013.7 hPa | 0 mm | - | 491 W/m² | - |
| 1777756325 | 21.67° C | 41% | 1013.5 hPa | 0 mm | - | 505 W/m² | - |
| 1777756022 | 21.67° C | 41% | 1013.4 hPa | 0 mm | - | 523 W/m² | - |
| 1777755719 | 21.67° C | 42% | 1013.5 hPa | 0 mm | - | 538 W/m² | - |
| 1777755416 | 21.67° C | 43% | 1013.4 hPa | 0 mm | - | 553 W/m² | - |
| 1777755113 | 21.67° C | 39% | 1013.6 hPa | 0 mm | - | 569 W/m² | - |
| 1777754809 | 21.67° C | 42% | 1013.7 hPa | 0 mm | - | 582 W/m² | - |
| 1777754508 | 21.67° C | 44% | 1013.6 hPa | 0 mm | - | 595 W/m² | - |
* Rain latest hour (hover to see other rain measurements)
** Current wind speed in m/s (hover to see current wind gust speed)